Weather History for Las Vegas, NV

Change the Weather History Date:

Saturday, February 2, 2013

  Actual Average Record
Temperature  
Mean Temperature 36 °F -  
Max Temperature 46 °F - - ()
Min Temperature 27 °F - - ()
Degree Days  
Heating Degree Days 28    
Moisture  
Dew Point 27 °F    
Average Humidity 73    
Maximum Humidity 89    
Minimum Humidity 40    
Precipitation  
Precipitation 0.00 in - - ()
Sea Level Pressure  
Sea Level Pressure 30.54 in    
Wind  
Wind Speed 3 mph (North)    
Max Wind Speed 8 mph    
Max Gust Speed -    
Visibility 10 miles    
Events      
T = Trace of Precipitation, MM = Missing Value Source: NWS Daily Summary

Daily Weather History Graph

Daily Weather History Graph

Search for Another Location

Airport:

Trip Planner

Search our weather history database for the weather conditions in past years. The results will help you decide how hot, cold, wet, or windy it might be!

Date:

Astronomy

Feb. 02, 2013 Rise Set
Actual Time 6:47 AM PST 5:10 PM PST
Civil Twilight 6:20 AM PST 5:38 PM PST
Nautical Twilight 5:48 AM PST 6:09 PM PST
Astronomical Twilight 5:18 AM PST 6:40 PM PST
Moon No Moon Rise 10:10 AM PST (2/2)
Length of Visible Light 11h 17m
Length of Day
10h 22m
Waning Gibbous, 58% of the Moon is Illuminated
Feb 2
Waning Gibbous
Feb 3
Last Quarter
Feb 9
New
Feb 17
First Quarter
Feb 25
Full

Hourly Weather History & Observations

Time (PST) Temp. Windchill Dew Point Humidity Pressure Visibility Wind Dir Wind Speed Gust Speed Precip Events Conditions
12:56 AM 30.9 °F 26.2 °F 27.0 °F 85% 30.55 in 10.0 mi NNW 4.6 mph - N/A   Clear
1:56 AM 32.0 °F - 25.0 °F 75% 30.56 in 10.0 mi Calm Calm - N/A   Clear
2:56 AM 32.0 °F - 24.1 °F 73% 30.57 in 10.0 mi Calm Calm - N/A   Clear
3:56 AM 28.9 °F 23.9 °F 24.1 °F 82% 30.56 in 10.0 mi WNW 4.6 mph - N/A   Clear
4:56 AM 28.0 °F - 24.1 °F 85% 30.56 in 10.0 mi Calm Calm - N/A   Clear
6:56 AM 27.0 °F 23.0 °F 24.1 °F 89% 30.56 in 10.0 mi SW 3.5 mph - N/A   Clear
7:56 AM 32.0 °F 28.7 °F 26.1 °F 79% 30.58 in 10.0 mi NE 3.5 mph - N/A   Clear
8:56 AM 34.0 °F - 28.0 °F 79% 30.59 in 10.0 mi Calm Calm - N/A   Clear
9:56 AM 37.0 °F - 28.0 °F 70% 30.60 in 10.0 mi Calm Calm - N/A   Clear
10:56 AM 39.0 °F 35.7 °F 30.0 °F 70% 30.59 in 10.0 mi ENE 4.6 mph - N/A   Clear
11:56 AM 43.0 °F 40.3 °F 28.9 °F 58% 30.57 in 10.0 mi ENE 4.6 mph - N/A   Clear
12:56 PM 46.0 °F 42.5 °F 23.0 °F 40% 30.54 in 10.0 mi NE 6.9 mph - N/A   Clear
1:56 PM 46.0 °F 41.9 °F 26.1 °F 46% 30.52 in 10.0 mi NNE 8.1 mph - N/A   Clear
4:56 PM 39.0 °F 34.8 °F 28.0 °F 65% 30.52 in 10.0 mi NE 5.8 mph - N/A   Clear
5:56 PM 37.0 °F 31.6 °F 28.9 °F 73% 30.53 in 10.0 mi NNE 6.9 mph - N/A   Partly Cloudy
6:56 PM 35.1 °F 31.0 °F 28.9 °F 78% 30.51 in 10.0 mi North 4.6 mph - N/A   Mostly Cloudy
7:56 PM 35.1 °F 32.2 °F 28.0 °F 76% 30.51 in 10.0 mi WNW 3.5 mph - N/A   Overcast
8:56 PM 36.0 °F 31.1 °F 28.0 °F 73% 30.51 in 10.0 mi NW 5.8 mph - N/A   Mostly Cloudy
9:56 PM 34.0 °F - 28.9 °F 82% 30.51 in 10.0 mi Calm Calm - N/A   Overcast
10:56 PM 35.1 °F - 28.9 °F 78% 30.51 in 10.0 mi Calm Calm - N/A   Mostly Cloudy
11:56 PM 35.1 °F 29.3 °F 28.0 °F 76% 30.49 in 10.0 mi NW 6.9 mph - N/A   Overcast